ATLAS 5 CENTAUR DEB, 44670

Orbit data source: Space-Track

ATLAS 5 CENTAUR DEB, 44670 is space debris in HEO originally from a launch on Wed, 17 Oct 2018 UTC launched from the Air Force Eastern Test Range (AFETR). Debris objects in space refer to the collection of defunct objects orbiting the Earth. Examples of debris include non-operational satellites, rocket bodies, and fragments generated from explosions, collisions, or faulty payload assembly.

Loading next visibility...
Identifier
44670, 2018-079AG
Orbit
HEO
Country
Flag of USUS
Related business
Flag of USUnited Launch Alliance/Lockheed Martin (US)
Manufacturer
ULA Decatur
Mission
Spacecraft
Bus & Motor
Unknown
Mass
Unknown
Launch date (UTC)
2018-10-17 (7 years ago)
Launch vehicle
Unknown
Launch site
Air Force Eastern Test Range (AFETR)
Object type
Payload
Rocket body
Debris
Shape & HBR
Unknown shape, 1.1 m
Radar Cross Section
Large (>1 m²)

Expand to show TLE details & history
Last TLE update: 1 day ago

TLE from 1 day ago
0 ATLAS 5 CENTAUR DEB
1 44670U 18079AG  25342.15720553 -.00000111  00000-0  00000-0 0  9994
2 44670  13.0792  51.5427 4638124 284.2889  29.9015  1.82911592 43560
Epoch: 2025-12-08T03:46Z
TLE epoch observation values (Epoch: 2025-12-08T03:46:22.557Z)
Latitude
0.00005°
Longitude
-82.27618°
Altitude
13,541.193 km
Speed
5.09 km/s
True Right ascension
03h 25m 54s
True Declination
0° 00' 00"
Sunlit
Object was in daylight at epoch
Visualization orbit readout
Latitude
Unknown
Longitude
Unknown
Altitude
Unknown
Speed
Unknown
Apparent Right ascension
Unknown
Apparent Declination
Unknown
Sunlit
N/A
Visualization observer readout
Local Sidereal Time
10:05:16
Azimuth
Unknown
Elevation
Unknown
Doppler factor
Unknown
Orbital elements
Apogee altitude
34,967.074 km
Perigee altitude
8,766.419 km
Semi-major axis
28,244.884 km
Eccentricity
0.46381
Inclination
13.0792°
RAAN
51.5427°
Arg. of periapsis
284.2889°
True anomaly
75.69031°
Mean anomaly
29.9015°
Eccentric anomaly
50.36805°
Mean motion
0.45723 °/min
Orbital period
787.35 mins
BSTAR
0
Loading maneuver chart data...
Computing Atmospheric mass density...

Documentation

Showing up to 5 results
|